User: anonymous   Login
Location: Melque
(41.0517°N, 4.4694°W)
Time: 07:57:15
(UTC+00:00)
Language:

ARIANE 5 R/B - Orbit

View from above orbital plane
View from above orbital plane
View from above satellite
View from above satellite

Ground track
Ground track

The orbit is defined by the following mean orbital elements,

1 27387U          26044.92505564 +.00000000 +00000-0 +45855-4 0 00003
2 27387  98.8165  60.1682 0032965 128.8509 231.5626 14.36764267    08
Epoch (UTC): 13 February 2026 22:12:04
Eccentricity: 0.0032965
inclination: 98.8165°
perigee height: 746 km
apogee height: 793 km
right ascension of ascending node: 60.1682°
argument of perigee: 128.8509°
revolutions per day: 14.36764267
mean anomaly at epoch: 231.5626°

The dashed part of the orbit path shows where the satellite is in the earth's shadow,  

DLR